TimeMST,TemperatureF,Dew PointF,Humidity,Sea Level PressureIn,VisibilityMPH,Wind Direction,Wind SpeedMPH,Gust SpeedMPH,PrecipitationIn,Events,Conditions,WindDirDegrees,DateUTC
12:54 AM,14.0,8.1,77,30.23,10.0,Calm,Calm,-,N/A,,Clear,0,2012-12-22 07:54:00
1:54 AM,15.1,8.1,74,30.21,10.0,ENE,6.9,-,N/A,,Clear,60,2012-12-22 08:54:00
2:54 AM,15.1,7.0,70,30.20,10.0,ENE,8.1,-,N/A,,Clear,60,2012-12-22 09:54:00
3:54 AM,12.9,8.1,81,30.21,10.0,Calm,Calm,-,N/A,,Clear,0,2012-12-22 10:54:00
4:54 AM,12.0,7.0,80,30.23,10.0,Calm,Calm,-,N/A,,Clear,0,2012-12-22 11:54:00
5:54 AM,10.0,5.0,80,30.29,10.0,ENE,3.5,-,N/A,,Clear,70,2012-12-22 12:54:00
6:54 AM,8.1,1.9,76,30.33,10.0,ENE,8.1,-,N/A,,Clear,60,2012-12-22 13:54:00
7:54 AM,7.0,1.9,80,30.35,10.0,Calm,Calm,-,N/A,,Clear,0,2012-12-22 14:54:00
8:54 AM,18.0,8.1,65,30.30,10.0,Calm,Calm,-,N/A,,Clear,0,2012-12-22 15:54:00
9:54 AM,36.0,14.0,41,30.23,10.0,SSE,5.8,-,N/A,,Clear,160,2012-12-22 16:54:00
10:54 AM,42.1,19.9,41,30.21,10.0,South,8.1,-,N/A,,Clear,190,2012-12-22 17:54:00
11:54 AM,42.1,21.9,45,30.19,10.0,SSW,12.7,-,N/A,,Clear,210,2012-12-22 18:54:00
12:54 PM,43.0,23.0,45,30.15,10.0,SSW,11.5,-,N/A,,Clear,200,2012-12-22 19:54:00
1:54 PM,43.0,24.1,47,30.13,10.0,SSW,12.7,18.4,N/A,,Clear,200,2012-12-22 20:54:00
2:54 PM,44.1,21.9,42,30.13,10.0,SW,16.1,21.9,N/A,,Clear,230,2012-12-22 21:54:00
3:54 PM,43.0,21.0,42,30.15,10.0,SW,15.0,-,N/A,,Clear,230,2012-12-22 22:54:00
4:54 PM,39.9,21.0,47,30.17,10.0,SSW,6.9,-,N/A,,Clear,200,2012-12-22 23:54:00
5:54 PM,34.0,21.0,59,30.22,10.0,SW,5.8,-,N/A,,Clear,230,2012-12-23 00:54:00
6:54 PM,32.0,19.9,61,30.24,10.0,SW,5.8,-,N/A,,Clear,220,2012-12-23 01:54:00
7:54 PM,23.0,18.0,81,30.29,10.0,Calm,Calm,-,N/A,,Clear,0,2012-12-23 02:54:00
8:54 PM,21.9,17.1,82,30.24,10.0,ENE,3.5,-,N/A,,Clear,60,2012-12-23 03:54:00
9:54 PM,23.0,18.0,81,30.17,10.0,NE,3.5,-,N/A,,Clear,40,2012-12-23 04:54:00
10:54 PM,21.0,16.0,81,30.15,10.0,NE,5.8,-,N/A,,Clear,50,2012-12-23 05:54:00
11:54 PM,19.0,15.1,85,30.16,10.0,NE,6.9,-,N/A,,Clear,50,2012-12-23 06:54:00